• In Netherlands
  • List of Countries
  • For 7 days
  • Water Temperature
  • Satellite Maps
  • Weather Map
  • Weather Widgets
  • user-avatar
    Login

    Hourly Weather Baraki Barak

    Today, 29 April, Saturday

    Time Temperature Precipitation Wind Pressure Humidity
    00:00 +12°C° 0 mm 3 mps 598 mmHg 46%
    01:00 +12°C° 0 mm 3 mps 597 mmHg 46%
    02:00 +11°C° 0 mm 3 mps 597 mmHg 47%
    03:00 +12°C° 0 mm 2 mps 597 mmHg 47%
    04:00 +10°C° 0 mm 2 mps 596 mmHg 48%
    05:00 +10°C° 0 mm 2 mps 596 mmHg 47%
    06:00 +10°C° 0 mm 2 mps 596 mmHg 44%
    07:00 +12°C° 0 mm 2 mps 597 mmHg 41%
    08:00 +13°C° 0 mm 2 mps 597 mmHg 38%
    09:00 +14°C° 0 mm 2 mps 598 mmHg 33%
    10:00 +15°C° 0 mm 2 mps 598 mmHg 28%
    11:00 +17°C° 0 mm 2 mps 599 mmHg 21%
    12:00 +17°C° 0 mm 2 mps 599 mmHg 19%
    13:00 +18°C° 0 mm 3 mps 599 mmHg 17%
    14:00 +19°C° 0 mm 3 mps 600 mmHg 15%
    15:00 +19°C° 0 mm 3 mps 600 mmHg 14%
    16:00 +19°C° 0 mm 3 mps 599 mmHg 13%
    17:00 +19°C° 0 mm 4 mps 599 mmHg 11%
    18:00 +18°C° 0 mm 3 mps 599 mmHg 14%
    19:00 +17°C° 0 mm 3 mps 599 mmHg 16%
    20:00 +14°C° 0 mm 3 mps 599 mmHg 18%
    21:00 +14°C° 0 mm 3 mps 599 mmHg 20%
    22:00 +14°C° 0 mm 2 mps 599 mmHg 22%
    23:00 +13°C° 0 mm 2 mps 598 mmHg 24%

    Tomorrow, 30 April, Sunday

    Time Temperature Precipitation Wind Pressure Humidity
    00:00 +12°C° 0 mm 2 mps 598 mmHg 25%
    01:00 +10°C° 0 mm 2 mps 598 mmHg 27%
    02:00 +10°C° 0 mm 2 mps 597 mmHg 29%
    03:00 +9°C° 0 mm 2 mps 597 mmHg 31%
    04:00 +9°C° 0 mm 2 mps 597 mmHg 32%
    05:00 +8°C° 0 mm 2 mps 596 mmHg 33%
    06:00 +9°C° 0 mm 2 mps 597 mmHg 30%
    07:00 +10°C° 0 mm 2 mps 598 mmHg 26%
    08:00 +12°C° 0 mm 2 mps 598 mmHg 22%
    09:00 +14°C° 0 mm 2 mps 599 mmHg 19%
    10:00 +15°C° 0 mm 2 mps 599 mmHg 15%
    11:00 +17°C° 0 mm 2 mps 600 mmHg 12%
    12:00 +18°C° 0 mm 2 mps 600 mmHg 11%
    13:00 +19°C° 0 mm 2 mps 600 mmHg 10%
    14:00 +20°C° 0 mm 2 mps 600 mmHg 9%
    15:00 +20°C° 0 mm 2 mps 600 mmHg 9%
    16:00 +20°C° 0 mm 3 mps 599 mmHg 9%
    17:00 +20°C° 0 mm 3 mps 599 mmHg 9%
    18:00 +19°C° 0 mm 3 mps 599 mmHg 12%
    19:00 +18°C° 0 mm 2 mps 599 mmHg 14%
    20:00 +16°C° 0 mm 2 mps 599 mmHg 17%
    21:00 +15°C° 0 mm 2 mps 599 mmHg 18%
    22:00 +15°C° 0 mm 2 mps 598 mmHg 20%
    23:00 +14°C° 0 mm 2 mps 598 mmHg 21%

    Day after tomorrow, 1 May, Monday

    Time Temperature Precipitation Wind Pressure Humidity
    00:00 +13°C° 0 mm 1 mps 598 mmHg 22%
    01:00 +12°C° 0 mm 1 mps 597 mmHg 23%
    02:00 +12°C° 0 mm 1 mps 597 mmHg 24%
    03:00 +11°C° 0 mm 1 mps 597 mmHg 24%
    04:00 +11°C° 0 mm 1 mps 597 mmHg 23%
    05:00 +11°C° 0 mm 1 mps 596 mmHg 23%
    06:00 +12°C° 0 mm 1 mps 597 mmHg 21%
    07:00 +13°C° 0 mm 1 mps 598 mmHg 18%
    08:00 +15°C° 0 mm 1 mps 599 mmHg 16%
    09:00 +16°C° 0 mm 1 mps 600 mmHg 15%
    10:00 +18°C° 0 mm 1 mps 600 mmHg 14%
    11:00 +20°C° 0 mm 1 mps 601 mmHg 12%
    12:00 +21°C° 0 mm 1 mps 601 mmHg 12%
    13:00 +22°C° 0 mm 1 mps 601 mmHg 11%
    14:00 +23°C° 0 mm 2 mps 601 mmHg 10%
    15:00 +23°C° 0 mm 2 mps 601 mmHg 10%
    16:00 +23°C° 0 mm 2 mps 600 mmHg 10%
    17:00 +23°C° 0 mm 2 mps 600 mmHg 10%
    18:00 +21°C° 0 mm 3 mps 600 mmHg 13%
    19:00 +20°C° 0 mm 3 mps 600 mmHg 15%
    20:00 +19°C° 0 mm 3 mps 600 mmHg 18%
    21:00 +18°C° 0 mm 3 mps 600 mmHg 20%
    22:00 +17°C° 0 mm 2 mps 600 mmHg 23%
    23:00 +16°C° 0 mm 2 mps 600 mmHg 25%

    2 May, Tuesday

    Time Temperature Precipitation Wind Pressure Humidity
    00:00 +16°C° 0 mm 2 mps 599 mmHg 26%
    01:00 +15°C° 0 mm 2 mps 599 mmHg 27%
    02:00 +15°C° 0 mm 1 mps 598 mmHg 29%
    03:00 +14°C° 0 mm 1 mps 598 mmHg 29%
    04:00 +14°C° 0 mm 1 mps 598 mmHg 29%
    05:00 +14°C° 0 mm 1 mps 598 mmHg 30%
    06:00 +15°C° 0 mm 1 mps 599 mmHg 27%
    07:00 +15°C° 0 mm 2 mps 599 mmHg 25%
    08:00 +16°C° 0 mm 2 mps 600 mmHg 22%
    09:00 +17°C° 0 mm 2 mps 601 mmHg 22%
    10:00 +18°C° 0 mm 2 mps 601 mmHg 22%
    11:00 +19°C° 0 mm 2 mps 602 mmHg 21%
    12:00 +19°C° 0.1 mm 2 mps 601 mmHg 23%
    13:00 +19°C° 0.1 mm 2 mps 601 mmHg 25%
    14:00 +19°C° 0.1 mm 2 mps 600 mmHg 27%
    15:00 +19°C° 0.1 mm 2 mps 600 mmHg 28%
    16:00 +19°C° 0.1 mm 2 mps 600 mmHg 29%
    17:00 +19°C° 0.1 mm 2 mps 600 mmHg 30%
    18:00 +18°C° 0 mm 2 mps 600 mmHg 33%
    19:00 +17°C° 0 mm 2 mps 600 mmHg 36%
    20:00 +17°C° 0 mm 2 mps 600 mmHg 38%
    21:00 +16°C° 0 mm 2 mps 600 mmHg 39%
    22:00 +16°C° 0 mm 2 mps 600 mmHg 40%
    23:00 +15°C° 0 mm 2 mps 600 mmHg 41%

    3 May, Wednesday

    Time Temperature Precipitation Wind Pressure Humidity
    00:00 +15°C° 0.1 mm 1 mps 599 mmHg 43%
    01:00 +14°C° 0.1 mm 1 mps 599 mmHg 44%
    02:00 +14°C° 0.1 mm 1 mps 598 mmHg 45%
    03:00 +13°C° 0 mm 1 mps 598 mmHg 47%
    04:00 +13°C° 0 mm 1 mps 598 mmHg 48%
    05:00 +12°C° 0 mm 1 mps 597 mmHg 50%
    06:00 +13°C° 0 mm 1 mps 598 mmHg 47%
    07:00 +14°C° 0 mm 1 mps 599 mmHg 43%
    08:00 +15°C° 0 mm 1 mps 599 mmHg 40%
    09:00 +16°C° 0 mm 1 mps 600 mmHg 38%
    10:00 +18°C° 0 mm 1 mps 600 mmHg 36%
    11:00 +19°C° 0 mm 1 mps 600 mmHg 34%
    12:00 +20°C° 0.1 mm 1 mps 600 mmHg 32%
    13:00 +21°C° 0.1 mm 1 mps 600 mmHg 30%
    14:00 +22°C° 0.1 mm 1 mps 600 mmHg 28%
    15:00 +22°C° 0.3 mm 1 mps 600 mmHg 27%
    16:00 +22°C° 0.3 mm 1 mps 600 mmHg 26%
    17:00 +22°C° 0.3 mm 1 mps 600 mmHg 24%
    18:00 +21°C° 0.2 mm 2 mps 599 mmHg 27%
    19:00 +20°C° 0.2 mm 2 mps 599 mmHg 31%
    20:00 +19°C° 0.2 mm 2 mps 599 mmHg 34%
    21:00 +18°C° 0 mm 2 mps 599 mmHg 36%
    22:00 +18°C° 0 mm 2 mps 599 mmHg 38%
    23:00 +17°C° 0 mm 2 mps 599 mmHg 40%

    4 May, Thursday

    Time Temperature Precipitation Wind Pressure Humidity
    00:00 +16°C° 0 mm 2 mps 599 mmHg 42%
    01:00 +16°C° 0 mm 1 mps 598 mmHg 43%
    02:00 +15°C° 0 mm 1 mps 598 mmHg 45%
    03:00 +15°C° 0 mm 1 mps 598 mmHg 45%
    04:00 +14°C° 0 mm 1 mps 597 mmHg 46%
    05:00 +14°C° 0 mm 1 mps 597 mmHg 46%
    06:00 +15°C° 0 mm 1 mps 598 mmHg 42%
    07:00 +16°C° 0 mm 1 mps 599 mmHg 37%
    08:00 +18°C° 0 mm 1 mps 600 mmHg 33%
    09:00 +19°C° 0 mm 1 mps 600 mmHg 29%
    10:00 +20°C° 0 mm 1 mps 601 mmHg 25%
    11:00 +22°C° 0 mm 1 mps 601 mmHg 22%
    12:00 +23°C° 0 mm 2 mps 601 mmHg 20%
    13:00 +24°C° 0 mm 2 mps 601 mmHg 19%
    14:00 +25°C° 0 mm 3 mps 601 mmHg 17%
    15:00 +25°C° 0 mm 3 mps 601 mmHg 17%
    16:00 +25°C° 0 mm 3 mps 601 mmHg 18%
    17:00 +25°C° 0 mm 3 mps 600 mmHg 18%
    18:00 +24°C° 0 mm 3 mps 600 mmHg 21%
    19:00 +23°C° 0 mm 2 mps 600 mmHg 25%
    20:00 +21°C° 0 mm 2 mps 600 mmHg 28%
    21:00 +20°C° 0 mm 2 mps 600 mmHg 31%
    22:00 +19°C° 0 mm 2 mps 600 mmHg 34%
    23:00 +19°C° 0 mm 1 mps 600 mmHg 37%
    Show more